Find Neijiang

NORAD ID: 63984 Int'l Des: NNA 2025-100 Owner: GUOX/ZJLAB Country: CN operational
LEOCIRCULARRETROGRADESSO

Live Position

Loading 3D Globe...

About Neijiang

Description loading...

Upcoming Passes

Passes for default location (London). Set your location on the main map for personalized predictions.

Altitude History

Loading altitude history...

Two-Line Element Set

1 63984U 25100C 26106.93165699 .00006142 00000-0 27108-3 0 9995
2 63984 97.3693 181.0618 0025377 196.1844 163.8585 15.21827832 51316
Epoch: Apr 16, 2026 • Age: 11 hours

Current Status

Altitude 524.4 km
Velocity 7.60 km/s
Sub-Earth Point -82.65°S, 74.02°W
Launch Date May 14, 2025
Age 0.9 years
Type other

Technical Details

Classification Payload
Mass 50.00 kg
Dry Mass 50.00 kg
Total Mass 50.00 kg
Length 0.30 m
Diameter 0.30 m
Span 0.30 m
Shape Box + 2 pan
Manufacturer GUOX
Bus Type XSD
Phase Status In Orbit
Owner/State GUOX/ZJLAB/CN

Most Searched